Hourly Weather Roundup
Issued by NWS Central Illinois

Home | Current Version | Previous Version | Text Only | Print | Product List | Glossary On
Versions: 1 2 3 4 5 6 7 8 9 10 11 12 13 14 15 16 17 18 19 20 21 22 23 24 25 26 27 28 29 30 31 32 33 34 35 36 37 38 39 40 41 42 43 44 45 46 47 48 49 50
000
NZUS43 KILX 212010
HWRILX

AREA WEATHER ROUNDUP
NATIONAL WEATHER SERVICE, LINCOLN IL
200 PM CST SAT JAN 21 2017


CITY           SKY/WX    TMP DP  RH WIND       PRES   REMARKS
BLOOMINGTON    SUNNY     60  46  59 SW13      29.49S
CHAMPAIGN      SUNNY     62  52  69 S17       29.50F
DANVILLE       SUNNY     62  52  71 S13       29.49F
DECATUR        SUNNY     63  48  58 SW18      29.49F
EFFINGHAM      SUNNY     67  51  57 S10       29.54S
FLORA          MOSUNNY   67  56  66 SW16      29.54F
GALESBURG      SUNNY     54  47  75 SW13      29.46S
JACKSONVILLE   SUNNY     61  43  50 W13       29.49S
LACON          SUNNY     58  43  56 W8        29.46S
LAWRENCEVILLE  SUNNY     68  56  65 SW20G26   29.55F
LITCHFIELD     SUNNY     62  50  65 S15       29.50F
$$


CITY           SKY/WX    TMP DP  RH WIND       PRES   REMARKS
LINCOLN        SUNNY     63  47  55 SW6G16    29.48S
MACOMB         SUNNY     56  47  72 SW17      29.49S
MATTOON        SUNNY     63  50  62 S14       29.52F
MT CARMEL AP   SUNNY     67  54  63 SW15      29.55S
OLNEY-NOBLE AP MOSUNNY   66  57  72 SW9G16    29.55S
PARIS          SUNNY     63  56  78 S14       29.53F
PEORIA         MOSUNNY   59  44  57 SW16      29.47F
PONTIAC        SUNNY     59  50  71 SW12G18   29.48S
RANTOUL        SUNNY     64  53  68 SW10      29.50S
SPRINGFIELD    SUNNY     64  47  53 SW12      29.48F
TAYLORVILLE    SUNNY     63  48  58 S13       29.50S
$$

...REGIONAL REPORTS...


CITY           SKY/WX    TMP DP  RH WIND       PRES   REMARKS
CHICAGO O`HARE MOSUNNY   58  46  64 S13G21    29.44F
KANKAKEE       MOSUNNY   60  50  70 S13G18    29.49F
MOLINE         MOSUNNY   50  43  77 W13       29.45S
MOUNT STERLING SUNNY     57  43  58 SW15      29.48S
MOUNT VERNON   MOSUNNY   68  56  65 SW20      29.54F
PITTSFIELD     SUNNY     60  42  51 SW15G22   29.50S
QUINCY         SUNNY     57  44  62 SW17      29.48F
ROCKFORD       MOSUNNY   55  44  66 SW12      29.45R
$$


CITY           SKY/WX    TMP DP  RH WIND       PRES   REMARKS
BURLINGTON     MOSUNNY   53  46  77 SW13      29.46S
CEDAR RAPIDS   CLOUDY    43  43 100 S9        29.44R FOG
DES MOINES     CLOUDY    47  41  80 SW17      29.44S
KIRKSVILLE     CLOUDY    45  42  89 SW13      29.50S
OTTUMWA        CLOUDY    45  42  89 SW14      29.46S
ST LOUIS       MOSUNNY   71  38  29 SW12      29.50F
$$


CITY           SKY/WX    TMP DP  RH WIND       PRES   REMARKS
TERRE HAUTE    SUNNY     64  52  64 SW14      29.54F
EVANSVILLE     SUNNY     69  51  52 SW16      29.58F
INDIANAPOLIS   MOSUNNY   66  53  63 S12       29.54F
LAFAYETTE      SUNNY     62  51  67 SW10      29.52F
MADISON        DRIZZLE   45  43  93 SW7       29.43R FOG
MILWAUKEE      MOSUNNY   48  45  89 SE8       29.41F
$$






USA.gov is the U.S. government's official web portal to all federal, state and local government web resources and services.